Flag for Japan Weather past 2 weeks in Kagoshima, Japan

Now
77 °F

Mild.


Feels Like: 78 °F
Forecast: 77 / 87 °F
Wind: 2 mph from Northwest

Location: Kagoshima

Current Time: Jul 8, 2015 at 12:35:25 AM

Latest Report: Jul 8, 2015 at 12:00 AM


Visibility: N/A

Pressure: 29.82 "Hg

Humidity: 88%

Dew point: 73 °F

Location of KagoshimaLocation

Historic Weather in Kagoshima — Graph

°F

Kagoshima temperature yesterday

Maximum temperature yesterday: 84 °F (at 2:00 PM)
Minimum temperature yesterday: 72 °F (at 5:00 AM)
Average temperature yesterday: 78 °F

Past Weeks' High & Low Weather Summary

 TemperatureHumidityPressure
High84 °F (Jul 7, 2:00 PM)99% (Jun 24, 9:00 AM)29.89 "Hg (Jun 24, 9:00 AM)
Low66 °F (Jul 5, 5:00 AM)51% (Jun 29, 2:00 PM)29.41 "Hg (Jul 1, 3:00 AM)
Average73 °F92%29.71 "Hg
* Reported Jun 22 11:00 PM — Jul 7 11:00 PM, Kagoshima, Weather by CustomWeather, © 2015

Note: Actual official high and low records may vary slightly from our data, if they occured in-between our weather recording intervals... More about our weather records

Advertising

Kagoshima weather history for previous 24 hours

 ConditionsComfort  
Time TempWeatherWind HumidityBarometerVisibility
11:00 PM
Tue, Jul 7
78 °FWarm.5 mph85%29.83 "HgN/A
10:00 PM78 °FWarm.2 mph84%29.84 "HgN/A
9:00 PM79 °FOvercast.7 mph82%29.84 "Hg9 mi
8:00 PM80 °FWarm.7 mph82%29.83 "HgN/A
7:00 PM81 °FWarm.8 mph81%29.82 "HgN/A
6:00 PM82 °FOvercast.7 mph76%29.80 "Hg19 mi
5:00 PM82 °FWarm.5 mph78%29.78 "HgN/A
4:00 PM82 °FWarm.2 mph79%29.78 "HgN/A
3:00 PM84 °FOvercast.5 mph75%29.77 "Hg9 mi
2:00 PM84 °FWarm.3 mph73%29.77 "HgN/A
1:00 PM82 °FWarm.2 mph76%29.78 "HgN/A
11:00 AM80 °FWarm.2 mph83%29.82 "HgN/A
10:00 AM79 °FWarm.2 mph84%29.81 "HgN/A
9:00 AM77 °FOvercast.5 mph85%29.82 "Hg9 mi
8:00 AM75 °FMild.1 mph93%29.81 "HgN/A
7:00 AM74 °FMild.2 mph94%29.80 "HgN/A
5:00 AM72 °FMild.1 mph96%29.78 "HgN/A
4:00 AM73 °FMild.3 mph95%29.77 "HgN/A
3:00 AM73 °FOvercast.3 mph95%29.77 "Hg12 mi
2:00 AM73 °FMild.5 mph95%29.78 "HgN/A
1:00 AM72 °FMild.5 mph96%29.81 "HgN/A
12:00 AM73 °FMild.2 mph96%29.82 "HgN/A
Weather by CustomWeather, © 2015

See weather overviewHow to use our weather pages